Terminal Aerodrome Forecast
Issued by NWS Cleveland, OH

Home | Current Version | Previous Version | Text Only | Print | Product List | Glossary Off
Versions: 1 2 3 4 5 6 7 8 9 10 11 12 13 14 15 16 17 18 19 20 21

000
FTUS41 KCLE 072300
TAFMFD
TAF
KMFD 072337Z 0800/0824 23009KT P6SM BKN035
     FM080500 22007KT 6SM BR SCT040 BKN150
     FM080700 21006KT 4SM BR SCT020 BKN200
     FM081300 21012G20KT 6SM BR VCSH BKN030 OVC100
     FM081600 23010G18KT 5SM -SHRA VCTS BKN025CB OVC060
     FM081900 26015G22KT P6SM BKN050=

USA.gov is the U.S. government's official web portal to all federal, state and local government web resources and services.